Regional Weather Roundup
Issued by NWS Nashville, TN

Current Version | Previous Version | Text Only | Print | Product List | Glossary On
Versions: 1 2 3 4 5 6 7 8 9 10 11 12 13 14 15 16 17 18 19 20 21 22 23 24 25 26 27 28 29 30 31 32 33 34 35 36 37 38 39 40 41 42 43 44 45 46 47 48
000 ASUS44 KOHX 070210 RWROHX MIDDLE TENNESSEE HOURLY WEATHER ROUNDUP NATIONAL WEATHER SERVICE NASHVILLE TN 800 PM CST SAT MAR 06 2021 NOTE: "FAIR" INDICATES FEW OR NO CLOUDS BELOW 12,000 FEET WITH NO SIGNIFICANT WEATHER AND/OR OBSTRUCTIONS TO VISIBILITY. * THESE REPORTS ARE NOT UNDER NWS QUALITY CONTROL AND MAY NOT REPORT WEATHER SUCH AS PRECIPITATION AND FOG. TNZ005>011-023>034-057-059-062>066-078-080-070300 ...NORTHERN MIDDLE TENNESSEE... CITY SKY/WX TMP DP RH WIND PRES REMARKS CLARKSVILLE CLEAR 42 24 49 N6 30.31R CROSSVILLE CLEAR 37 13 37 N5 30.25R WCI 33 DICKSON PTCLDY 43 19 39 N6 30.28S GALLATIN CLEAR 41 21 45 CALM 30.32R LEBANON MOCLDY 37 25 60 CALM 30.27S LIVINGSTON CLEAR 41 16 36 N7 30.26S NASHVILLE CLEAR 47 19 33 N5 30.30R PORTLAND CLEAR 39 23 52 CALM 30.28S ROCKWOOD CLEAR 39 12 33 N8 30.24R WCI 34 SMYRNA CLEAR 38 24 57 NW3 30.30S SPARTA N/A 30 21 69 CALM 30.27R SPRINGFIELD PTCLDY 45 21 39 N3 30.29R WEST NASHVILLE CLEAR 43 19 39 CALM 30.28R $$ TNZ056-058-060-061-075>077-079-093>097-070300 ...SOUTHERN MIDDLE TENNESSEE... CITY SKY/WX TMP DP RH WIND PRES REMARKS COLUMBIA CLEAR 41 18 38 CALM 30.27S FAYETTEVILLE CLEAR 45 18 33 N8G15 30.28R LAWRENCEBURG MOCLDY 43 18 36 N5 30.27S LEWISBURG N/A 34 23 64 N3 30.28R MCMINNVILLE CLEAR 41 18 38 N7 30.26S MURFREESBORO N/A 43 19 39 CALM 30.27S PULASKI PTCLDY 43 19 39 CALM 30.27S SHELBYVILLE CLEAR 43 19 39 N3 30.28R TULLAHOMA CLEAR 41 16 36 N7 30.26R WINCHESTER CLEAR 45 16 31 N7 30.25R $$ ...KEY TO REMARKS... VSB - VISIBILITY IN MILES WCI - WIND CHILL INDEX HX - HEAT INDEX

USA.gov is the U.S. government's official web portal to all federal, state and local government web resources and services.